Edinburg, TX

2:38 PM CST on February 27, 2017 (GMT -0600)
Edinburg

Weather History for KEBG - January, 2013

Change the Weather History Date:

Saturday, January 5, 2013

  Actual Average (KMFE) Record (KMFE)
Temperature  
Mean Temperature 50 °F -  
Max Temperature 54 °F 69 °F 86 °F (1946)
Min Temperature 45 °F 49 °F 30 °F (1884)
Degree Days  
Heating Degree Days 16    
Moisture  
Dew Point 44 °F    
Average Humidity 81    
Maximum Humidity 91    
Minimum Humidity 72    
Precipitation  
Precipitation 0.00 in - - ()
Sea Level Pressure  
Sea Level Pressure 30.31 in    
Wind  
Wind Speed 11 mph (NNW)    
Max Wind Speed 15 mph    
Max Gust Speed 22 mph    
Visibility 6 miles    
Events Rain    
Averages and records for this station are not official NWS values.
T = Trace of Precipitation, MM = Missing Value Source: NWS Daily Summary

Daily Weather History Graph

Daily Weather History Graph

Search for Another Location

Airport or City:

Trip Planner

Search our weather history database for the weather conditions in past years. The results will help you decide how hot, cold, wet, or windy it might be!

Date:

Astronomy

Jan. 05, 2013 Rise Set
Actual Time 7:21 AM CST 5:54 PM CST
Civil Twilight 6:56 AM CST 6:19 PM CST
Nautical Twilight 6:27 AM CST 6:48 PM CST
Astronomical Twilight 5:59 AM CST 7:16 PM CST
Moon 12:48 AM CST (1/5) 12:29 PM CST (1/5)
Length of Visible Light 11h 23m
Length of Day
10h 33m
Last Quarter, 44% of the Moon is Illuminated
Jan 5
Last Quarter
Jan 11
New
Jan 18
First Quarter
Jan 26
Full
Feb 3
Last Quarter

Hourly Weather History & Observations

Time (CST) Temp. Windchill Dew Point Humidity Pressure Visibility Wind Dir Wind Speed Gust Speed Precip Events Conditions
12:15 AM 47.7 °F - 42.8 °F 83% 30.34 in 7.0 mi NW 11.5 mph - N/A   Overcast
12:55 AM 47.7 °F - 42.8 °F 83% 30.33 in 7.0 mi NNW 12.7 mph - N/A   Overcast
1:15 AM 47.8 °F - 42.4 °F 82% 30.33 in 7.0 mi NW 11.5 mph - N/A   Overcast
1:35 AM 47.7 °F - 42.6 °F 83% 30.32 in 7.0 mi NW 11.5 mph - N/A   Overcast
1:55 AM 47.7 °F - 42.4 °F 82% 30.32 in 7.0 mi NW 10.4 mph - N/A   Overcast
2:15 AM 47.7 °F - 42.1 °F 81% 30.32 in 7.0 mi NNW 11.5 mph - N/A   Overcast
2:35 AM 47.8 °F - 41.7 °F 79% 30.32 in 7.0 mi NNW 12.7 mph 17.3 mph N/A   Overcast
2:55 AM 47.8 °F - 41.0 °F 77% 30.32 in 7.0 mi NNW 11.5 mph - N/A   Overcast
3:15 AM 47.8 °F - 40.6 °F 76% 30.32 in 7.0 mi NNW 13.8 mph - N/A   Overcast
3:35 AM 47.5 °F - 41.0 °F 78% 30.32 in 7.0 mi NW 11.5 mph - N/A   Overcast
3:55 AM 47.5 °F - 41.0 °F 78% 30.32 in 5.0 mi NNW 13.8 mph - N/A   Haze
4:15 AM 47.5 °F - 40.5 °F 77% 30.32 in 7.0 mi NNW 12.7 mph 21.9 mph N/A   Overcast
4:35 AM 47.3 °F - 40.6 °F 78% 30.32 in 7.0 mi NNW 12.7 mph - N/A   Overcast
4:55 AM 47.3 °F - 41.0 °F 79% 30.32 in 7.0 mi NNW 12.7 mph 18.4 mph N/A   Overcast
5:15 AM 46.9 °F - 41.0 °F 80% 30.32 in 7.0 mi NNW 12.7 mph - N/A   Overcast
5:35 AM 46.8 °F - 41.0 °F 80% 30.32 in 5.0 mi NNW 15.0 mph 19.6 mph N/A   Haze
6:15 AM 45.7 °F 39.5 °F 42.1 °F 87% 30.33 in 3.0 mi NNW 13.8 mph - N/A   Overcast
6:35 AM 45.5 °F 39.2 °F 42.3 °F 88% 30.33 in 2.5 mi NNW 13.8 mph 17.3 mph N/A   Overcast
6:55 AM 45.5 °F 39.9 °F 42.8 °F 90% 30.33 in 2.5 mi NNW 11.5 mph - N/A   Overcast
7:15 AM 45.5 °F 40.3 °F 42.8 °F 90% 30.34 in 2.5 mi NNW 10.4 mph - N/A Rain Light Rain
7:35 AM 45.5 °F 39.6 °F 42.8 °F 90% 30.35 in 2.0 mi NNW 12.7 mph 17.3 mph N/A   Light Drizzle
7:55 AM 45.5 °F 40.3 °F 43.0 °F 91% 30.36 in 2.5 mi North 10.4 mph - N/A   Overcast
8:15 AM 45.9 °F 41.7 °F 43.2 °F 90% 30.36 in 1.5 mi NW 8.1 mph - N/A   Overcast
8:35 AM 45.9 °F 40.0 °F 43.3 °F 91% 30.36 in 1.2 mi NW 12.7 mph - N/A   Drizzle
9:15 AM 46.4 °F 41.5 °F 43.7 °F 90% 30.37 in 1.5 mi NNW 10.4 mph - N/A   Overcast
9:35 AM 46.2 °F 41.2 °F 43.7 °F 91% 30.38 in 1.8 mi NNW 10.4 mph - N/A   Overcast
9:55 AM 46.6 °F - 44.1 °F 91% 30.38 in 2.0 mi NNW 10.4 mph - N/A   Overcast
10:15 AM 46.9 °F - 44.4 °F 91% 30.38 in 2.5 mi NNW 9.2 mph - N/A   Overcast
10:55 AM 47.8 °F - 45.0 °F 90% 30.37 in 4.0 mi NNW 12.7 mph - N/A   Drizzle
11:15 AM 48.2 °F - 45.0 °F 89% 30.36 in 3.0 mi NNW 11.5 mph - N/A   Overcast
11:35 AM 48.4 °F - 45.3 °F 89% 30.36 in 5.0 mi NNW 12.7 mph - N/A   Overcast
11:55 AM 48.6 °F - 45.5 °F 89% 30.34 in 4.0 mi NNW 10.4 mph - N/A   Overcast
12:15 PM 49.1 °F - 45.7 °F 88% 30.33 in 5.0 mi NNW 11.5 mph - N/A   Overcast
12:35 PM 49.6 °F - 45.7 °F 86% 30.32 in 3.0 mi NNW 11.5 mph - N/A   Overcast
12:55 PM 50.0 °F - 45.7 °F 85% 30.30 in 5.0 mi NNW 9.2 mph - N/A   Overcast
1:15 PM 50.2 °F - 45.7 °F 85% 30.29 in 5.0 mi NNW 13.8 mph - N/A   Overcast
1:35 PM 50.9 °F - 45.7 °F 82% 30.28 in 5.0 mi NNW 11.5 mph - N/A   Haze
1:55 PM 51.3 °F - 45.5 °F 81% 30.27 in 7.0 mi NNW 9.2 mph - N/A   Overcast
2:15 PM 51.8 °F - 45.5 °F 79% 30.27 in 7.0 mi NNW 9.2 mph - N/A   Overcast
2:35 PM 52.3 °F - 45.7 °F 78% 30.26 in 5.0 mi NNW 9.2 mph - N/A   Haze
2:55 PM 53.1 °F - 46.0 °F 77% 30.25 in 7.0 mi North 10.4 mph - N/A   Overcast
3:15 PM 53.1 °F - 45.5 °F 75% 30.25 in 7.0 mi NNW 9.2 mph - N/A   Overcast
3:35 PM 54.0 °F - 45.7 °F 74% 30.25 in 7.0 mi North 12.7 mph - N/A   Overcast
3:55 PM 54.3 °F - 46.0 °F 74% 30.25 in 5.0 mi North 8.1 mph - N/A   Haze
4:15 PM 54.5 °F - 45.7 °F 72% 30.25 in 7.0 mi NNW 8.1 mph - N/A   Overcast
4:35 PM 54.5 °F - 46.0 °F 73% 30.25 in 7.0 mi North 9.2 mph - N/A   Overcast
4:55 PM 54.3 °F - 46.4 °F 75% 30.25 in 7.0 mi North 9.2 mph - N/A   Overcast
5:15 PM 54.1 °F - 45.9 °F 74% 30.25 in 5.0 mi North 9.2 mph - N/A   Haze
5:35 PM 54.0 °F - 46.0 °F 75% 30.25 in 5.0 mi North 5.8 mph - N/A   Haze
5:55 PM 53.8 °F - 46.4 °F 76% 30.25 in 5.0 mi North 8.1 mph - N/A   Haze
6:15 PM 53.8 °F - 46.4 °F 76% 30.25 in 7.0 mi North 5.8 mph - N/A   Overcast
6:35 PM 53.6 °F - 46.4 °F 77% 30.25 in 7.0 mi North 6.9 mph - N/A   Overcast
6:55 PM 53.6 °F - 46.0 °F 76% 30.26 in 7.0 mi North 6.9 mph - N/A   Overcast
7:15 PM 53.6 °F - 46.0 °F 76% 30.27 in 7.0 mi North 5.8 mph - N/A   Overcast
7:55 PM 53.6 °F - 45.9 °F 75% 30.28 in 7.0 mi North 5.8 mph - N/A   Overcast
8:15 PM 53.4 °F - 45.7 °F 75% 30.28 in 7.0 mi NNW 6.9 mph - N/A   Overcast
8:55 PM 53.2 °F - 45.5 °F 75% 30.30 in 7.0 mi NNW 5.8 mph - N/A   Overcast
9:15 PM 53.2 °F - 45.5 °F 75% 30.30 in 7.0 mi NNW 8.1 mph - N/A   Overcast
9:35 PM 53.2 °F - 45.5 °F 75% 30.30 in 7.0 mi NNW 5.8 mph - N/A   Overcast
9:55 PM 53.1 °F - 45.5 °F 75% 30.30 in 7.0 mi NNW 4.6 mph - N/A   Overcast
10:15 PM 53.1 °F - 45.5 °F 75% 30.30 in 7.0 mi North 5.8 mph - N/A   Overcast
10:35 PM 53.1 °F - 45.1 °F 74% 30.30 in 7.0 mi NNW 4.6 mph - N/A   Overcast
11:15 PM 52.9 °F - 45.7 °F 77% 30.30 in 7.0 mi NNW 3.5 mph - N/A   Overcast
11:35 PM 52.9 °F - 45.7 °F 77% 30.29 in 7.0 mi NW 3.5 mph - N/A   Overcast
11:55 PM 52.9 °F - 45.5 °F 76% 30.29 in 7.0 mi NW 4.6 mph - N/A   Overcast